TimeCST,TemperatureF,Dew PointF,Humidity,Sea Level PressureIn,VisibilityMPH,Wind Direction,Wind SpeedMPH,Gust SpeedMPH,PrecipitationIn,Events,Conditions,WindDirDegrees,DateUTC
12:15 AM,63.1,62.2,97,29.93,7.0,SSE,4.6,-,N/A,,Overcast,160,2013-01-12 06:15:00
12:35 AM,63.1,62.6,98,29.93,7.0,SE,4.6,-,N/A,,Overcast,140,2013-01-12 06:35:00
12:55 AM,63.7,63.1,98,29.94,5.0,SSE,3.5,-,N/A,,Overcast,150,2013-01-12 06:55:00
1:35 AM,63.5,63.5,100,29.94,0.8,SE,3.5,-,N/A,,Overcast,140,2013-01-12 07:35:00
1:55 AM,63.1,63.1,100,29.94,0.8,SE,4.6,-,N/A,,Overcast,130,2013-01-12 07:55:00
2:15 AM,63.5,63.5,100,29.94,0.8,Calm,Calm,-,N/A,,Overcast,0,2013-01-12 08:15:00
2:35 AM,63.5,63.5,100,29.93,0.8,ESE,3.5,-,N/A,,Overcast,120,2013-01-12 08:35:00
2:55 AM,63.5,63.5,100,29.93,0.8,SE,4.6,-,N/A,,Overcast,140,2013-01-12 08:55:00
3:15 AM,63.7,63.7,100,29.92,0.8,SE,5.8,-,N/A,,Overcast,130,2013-01-12 09:15:00
3:35 AM,64.4,64.4,100,29.91,1.0,SE,5.8,-,N/A,,Overcast,130,2013-01-12 09:35:00
3:55 AM,64.4,64.4,100,29.91,0.8,SSE,3.5,-,N/A,,Overcast,150,2013-01-12 09:55:00
4:15 AM,64.8,64.8,100,29.91,0.8,SSE,5.8,-,N/A,,Overcast,150,2013-01-12 10:15:00
4:35 AM,64.9,64.9,100,29.91,1.0,SSE,5.8,-,N/A,,Overcast,150,2013-01-12 10:35:00
4:55 AM,65.3,65.3,100,29.90,0.8,SE,6.9,-,N/A,,Overcast,140,2013-01-12 10:55:00
5:15 AM,65.3,65.3,100,29.89,0.8,SE,5.8,-,N/A,Rain,Rain,140,2013-01-12 11:15:00
5:35 AM,68.2,68.2,100,29.91,2.0,South,8.1,23.0,0.21,Rain-Thunderstorm,Heavy Thunderstorms and Rain,180,2013-01-12 11:35:00
5:55 AM,68.5,68.5,100,29.89,2.5,South,12.7,24.2,0.71,Rain-Thunderstorm,Heavy Thunderstorms and Rain,180,2013-01-12 11:55:00
6:15 AM,67.3,66.7,98,29.91,1.2,SSE,11.5,16.1,0.56,Rain-Thunderstorm,Heavy Thunderstorms and Rain,150,2013-01-12 12:15:00
6:35 AM,67.1,65.3,94,29.91,10.0,SSE,4.6,-,0.57,,Overcast,160,2013-01-12 12:35:00
6:55 AM,68.0,68.0,100,29.90,-9999.0,SE,6.9,-,0.57,,Overcast,140,2013-01-12 12:55:00
7:15 AM,68.4,68.0,99,29.91,7.0,SSE,6.9,-,N/A,Rain,Light Rain,160,2013-01-12 13:15:00
7:35 AM,68.0,67.6,99,29.91,5.0,SSE,6.9,-,N/A,,Overcast,160,2013-01-12 13:35:00
7:55 AM,68.9,68.2,98,29.92,5.0,South,8.1,-,N/A,,Overcast,170,2013-01-12 13:55:00
8:15 AM,69.4,68.4,96,29.92,7.0,South,6.9,-,N/A,,Overcast,170,2013-01-12 14:15:00
8:35 AM,69.8,68.5,96,29.92,7.0,South,9.2,-,N/A,,Overcast,170,2013-01-12 14:35:00
8:55 AM,70.3,68.7,95,29.93,7.0,South,10.4,-,N/A,,Overcast,180,2013-01-12 14:55:00
9:15 AM,70.5,68.5,93,29.93,7.0,South,10.4,-,N/A,,Overcast,170,2013-01-12 15:15:00
9:35 AM,70.7,68.4,92,29.94,7.0,South,9.2,-,N/A,,Light Drizzle,170,2013-01-12 15:35:00
9:55 AM,71.8,68.4,89,29.93,10.0,South,13.8,17.3,N/A,,Overcast,180,2013-01-12 15:55:00
10:15 AM,72.5,68.4,87,29.93,10.0,South,9.2,-,N/A,,Overcast,180,2013-01-12 16:15:00
10:35 AM,73.0,68.5,86,29.93,10.0,South,11.5,17.3,N/A,,Overcast,190,2013-01-12 16:35:00
10:55 AM,73.0,68.2,85,29.91,10.0,South,13.8,21.9,N/A,,Mostly Cloudy,170,2013-01-12 16:55:00
11:15 AM,72.7,67.1,83,29.90,10.0,South,20.7,26.5,N/A,,Mostly Cloudy,170,2013-01-12 17:15:00
11:35 AM,74.3,66.9,78,29.89,10.0,South,16.1,25.3,N/A,,Scattered Clouds,170,2013-01-12 17:35:00
11:55 AM,73.9,65.7,75,29.88,10.0,South,19.6,26.5,N/A,,Scattered Clouds,170,2013-01-12 17:55:00
12:35 PM,74.7,65.3,73,29.87,10.0,South,19.6,26.5,N/A,,Overcast,180,2013-01-12 18:35:00
12:55 PM,74.7,65.7,73,29.85,10.0,South,16.1,25.3,N/A,,Mostly Cloudy,170,2013-01-12 18:55:00
1:15 PM,74.1,65.5,74,29.84,10.0,South,17.3,23.0,N/A,,Overcast,170,2013-01-12 19:15:00
1:35 PM,74.3,65.7,74,29.84,10.0,South,15.0,20.7,N/A,,Mostly Cloudy,180,2013-01-12 19:35:00
1:55 PM,73.9,65.7,75,29.83,10.0,South,15.0,25.3,N/A,,Mostly Cloudy,180,2013-01-12 19:55:00
2:15 PM,74.5,66.2,75,29.83,10.0,South,15.0,19.6,N/A,,Mostly Cloudy,170,2013-01-12 20:15:00
2:35 PM,73.9,66.0,76,29.82,10.0,South,12.7,20.7,N/A,,Mostly Cloudy,170,2013-01-12 20:35:00
2:55 PM,73.4,65.8,77,29.82,10.0,SSE,17.3,20.7,N/A,,Overcast,160,2013-01-12 20:55:00
3:15 PM,73.4,65.7,77,29.82,10.0,South,13.8,20.7,N/A,,Overcast,170,2013-01-12 21:15:00
3:35 PM,73.4,65.7,77,29.81,10.0,South,17.3,21.9,N/A,,Overcast,170,2013-01-12 21:35:00
3:55 PM,72.9,65.7,78,29.81,10.0,SSE,17.3,23.0,N/A,,Mostly Cloudy,160,2013-01-12 21:55:00
4:15 PM,72.5,65.7,79,29.81,10.0,South,16.1,21.9,N/A,,Mostly Cloudy,170,2013-01-12 22:15:00
4:35 PM,72.1,65.8,80,29.81,10.0,SSE,12.7,-,N/A,,Mostly Cloudy,160,2013-01-12 22:35:00
4:55 PM,71.8,66.2,83,29.80,10.0,SSE,13.8,-,N/A,,Mostly Cloudy,160,2013-01-12 22:55:00
5:15 PM,71.6,66.2,83,29.80,10.0,SSE,13.8,-,N/A,,Overcast,160,2013-01-12 23:15:00
5:35 PM,71.6,66.4,84,29.80,10.0,South,12.7,18.4,N/A,,Overcast,170,2013-01-12 23:35:00
5:55 PM,71.6,66.6,84,29.80,10.0,South,12.7,-,N/A,,Overcast,170,2013-01-12 23:55:00
6:15 PM,71.6,66.6,84,29.79,10.0,SSE,11.5,-,N/A,,Overcast,160,2013-01-13 00:15:00
6:35 PM,71.6,66.7,85,29.80,10.0,South,10.4,-,N/A,,Overcast,170,2013-01-13 00:35:00
7:15 PM,71.6,67.1,86,29.79,10.0,South,13.8,-,N/A,,Overcast,180,2013-01-13 01:15:00
7:35 PM,71.6,67.1,86,29.78,10.0,South,11.5,18.4,N/A,,Overcast,170,2013-01-13 01:35:00
7:55 PM,71.8,67.3,86,29.78,10.0,South,13.8,-,N/A,,Overcast,170,2013-01-13 01:55:00
8:15 PM,71.6,67.3,86,29.78,10.0,South,20.7,25.3,N/A,,Overcast,170,2013-01-13 02:15:00
8:35 PM,71.8,67.5,86,29.77,10.0,South,19.6,24.2,N/A,,Mostly Cloudy,170,2013-01-13 02:35:00
9:15 PM,72.0,67.6,86,29.76,10.0,South,17.3,20.7,N/A,,Overcast,170,2013-01-13 03:15:00
9:35 PM,71.6,67.6,87,29.73,10.0,SSE,20.7,26.5,N/A,,Mostly Cloudy,160,2013-01-13 03:35:00
9:55 PM,71.8,67.6,87,29.70,10.0,SSE,21.9,34.5,N/A,,Scattered Clouds,160,2013-01-13 03:55:00
10:15 PM,72.5,68.0,86,29.77,10.0,SW,6.9,20.7,N/A,,Mostly Cloudy,230,2013-01-13 04:15:00
10:35 PM,72.5,68.0,86,29.77,10.0,SSW,11.5,17.3,N/A,,Overcast,200,2013-01-13 04:35:00
10:55 PM,72.9,68.0,85,29.76,10.0,South,11.5,18.4,N/A,,Overcast,180,2013-01-13 04:55:00
11:15 PM,72.7,68.0,85,29.75,10.0,South,13.8,20.7,N/A,,Overcast,180,2013-01-13 05:15:00
11:35 PM,72.7,67.6,84,29.77,10.0,South,17.3,21.9,N/A,,Overcast,190,2013-01-13 05:35:00
11:55 PM,72.7,67.5,84,29.76,10.0,South,15.0,21.9,N/A,,Overcast,180,2013-01-13 05:55:00